Lid_Strength_Index
11 10 8 6 6 6 6 2 1 2 0 0 1 3 5 5 5 6 7 8 8 9
13 12 11 10 8 7 6 4 2 0 1 1 2 4 5 6 6 5 7 8 9 9
13 12 11 10 10 8 6 5 5 1 1 3 3 3 4 5 5 6 7 8 9 9
13 12 11 11 10 9 8 6 6 3 1 3 4 3 3 4 5 6 7 7 8 9
13 12 11 10 10 9 9 7 8 5 2 4 4 3 3 4 5 6 6 7 8 8
11 10 10 9 8 7 7 7 5 4 2 4 5 5 3 4 6 5 6 7 7 8
11 10 10 9 8 8 7 7 5 4 1 4 5 5 5 5 6 5 6 7 7 8
11 10 10 9 9 8 8 6 5 3 2 4 5 5 6 6 6 7 7 8 8 8
10 10 10 10 8 8 7 7 5 3 2 4 5 8 8 6 7 7 8 9 9 8
9 9 9 9 7 7 7 7 5 2 3 4 5 9 8 8 8 8 9 9 9 8
9 10 10 10 8 6 4 5 3 2 4 7 8 10 10 9 9 9 9 9 9 9
8 9 10 11 8 5 5 6 8 7 7 8 9 10 10 10 10 10 11 10 11 11
8 9 10 10 9 5 6 8 8 8 9 10 12 12 11 10 10 12 12 12 12 11
8 8 9 10 9 9 8 9 10 11 12 12 13 13 13 12 11 11 11 11 12 12